Regional & State Weather Roundups


326 
ASUS41 KLWX 221910
RWRLWX
REGIONAL WEATHER ROUNDUP
NATIONAL WEATHER SERVICE BALTIMORE MD/WASHINGTON DC
300 PM EDT FRI AUG 22 2014
Note: "FAIR" indicates few or no clouds below 12,000 feet
with no significant weather and/or obstructions to visibility.
 TC=TEMPERATURE CELSIUS
 * =Non NWS site. Station does not report precipitation (e.g. rain,
    snow, etc.), thunder, or fog.
DCZ001-MDZ009-015-VAZ040>042-051-053>054-222000-
WASHINGTON METRO
  /KDAA//-FT BELVOIR
  
CITY           SKY/WX    TMP DP  RH WIND       PRES   REMARKS
WASHINGTON NAT CLOUDY    81  70  69 VRB3      29.98F                  
DULLES         CLOUDY    76  71  85 CALM      29.99F                  
ANDREWS AFB    CLOUDY    78  71  78 NW1       29.98F                  
QUANTICO       CLOUDY    76  71  85 NW9       29.99F                  
COLLEGE PARK*  CLOUDY    79  72  78 CALM      29.98S                  
LEESBURG*      CLOUDY    79  72  78 CALM      30.00F                  
GAITHERSBURG*  CLOUDY    75  70  83 W6        30.03S                  
$$
MDZ006>007-011-014-222000-
BALTIMORE METRO
  
CITY           SKY/WX    TMP DP  RH WIND       PRES   REMARKS
BWI AIRPORT    CLOUDY    77  69  76 E6        29.98S                  
MD SCIENCE CTR   N/A     79  68  69 MISG      29.98F                  
MARTIN STATE   PTSUNNY   79  72  78 E3        29.99F                  
ANNAPOLIS        N/A     77  69  76 MISG      29.98S                  
FORT MEADE*    PTSUNNY   77  68  73 E6        30.01S                  
$$
MDZ012-015-019>023-222000-
MARYLAND EASTERN SHORE
  
CITY           SKY/WX    TMP DP  RH WIND       PRES   REMARKS
OCEAN CITY     PTSUNNY   78  71  79 E13       29.95F                  
SALISBURY      CLOUDY    77  72  84 E6        29.95F                  
BAY BRIDGE AP*   N/A     77  70  78 N7        29.97F                  
CAMBRIDGE*     PTSUNNY   77  72  83 CALM      29.95F                  
EASTON*        PTSUNNY   82  73  74 N9        30.00S                  
$$
MDZ017>025-222000-
SOUTHERN MARYLAND
  
CITY           SKY/WX    TMP DP  RH WIND       PRES   REMARKS
PATUXENT RIVER CLOUDY    82  73  74 NW8       29.96F                  
ST INIGOES     CLOUDY    79  68  69 W7        29.95F                  
LEONARDTOWN*   CLOUDY    77  70  78 CALM      29.98F                  
$$
MDZ003>005-222000-
NORTH CENTRAL MARYLAND
  
CITY           SKY/WX    TMP DP  RH WIND       PRES   REMARKS
FREDERICK*     PTSUNNY   81  72  74 CALM      30.02S                  
HAGERSTOWN APT CLOUDY    78  67  68 E5        30.00F                  
WESTMINSTER*   LGT RAIN  77  70  78 CALM      30.01S                  
$$
MDZ501>502-222000-
WESTERN MARYLAND
  
CITY           SKY/WX    TMP DP  RH WIND       PRES   REMARKS
OAKLAND*       CLOUDY    72  68  88 NW3       30.08F                  
CUMBERLAND*    MOSUNNY   86  68  54 S5        30.02F                  
$$
VAZ025>031-222000-
SHENANDOAH VALLEY
  
CITY           SKY/WX    TMP DP  RH WIND       PRES   REMARKS
WINCHESTER*    PTSUNNY   79  70  73 CALM      30.00F                  
STAUNTON*      PTSUNNY   83  68  59 NE7       30.02F                  
$$
WVZ021-048>050-054>055-222000-
EASTERN WEST VIRGINIA PANHANDLE
  
CITY           SKY/WX    TMP DP  RH WIND       PRES   REMARKS
MARTINSBURG    PTSUNNY   79  66  64 VRB3      30.00F                  
PETERSBURG*    NOT AVBL                                               
$$
VAZ036>039-050-222000-
CENTRAL FOOTHILLS
  
CITY           SKY/WX    TMP DP  RH WIND       PRES   REMARKS
CHARLOTTESVILL PTSUNNY   79  70  74 NE3       29.99F                  
ORANGE*        CLOUDY    77  68  73 N5        30.01F                  
$$
VAZ055>057-222000-
NORTH AND CENTRAL PIEDMONT
  
CITY           SKY/WX    TMP DP  RH WIND       PRES   REMARKS
FREDERICKSBRG* LGT RAIN  75  73  91 W3        29.98F                  
STAFFORD*      LGT RAIN  74  74 100 CALM      30.03F                  
$$
NCZ024-NYZ072-PAZ021-071-VAZ022-071-222000-
OTHER REGIONAL OBSERVATIONS
  
CITY           SKY/WX    TMP DP  RH WIND       PRES   REMARKS
NEW YORK CITY  CLOUDY    76  61  59 VRB7      30.04F                  
PHILADELPHIA   CLOUDY    78  67  68 E8        30.00S                  
PITTSBURGH     PTSUNNY   80  69  69 S5        29.98F                  
ROANOKE        CLOUDY    78  69  73 CALM      30.05F                  
RICHMOND       CLOUDY    82  68  62 NW6       29.97F                  
RALEIGH        PTSUNNY   90  70  51 W7        30.00F HX  95           
$$
ANZ530>537-222000-
MARINE OBSERVATIONS
  
STATION/POSITION TIME  TEMP    WIND        PRES
                       AIR SEA DIR/SP/G
                 (UTC) (F)     (DEG/KT/KT) (MB)
THOMAS PT LIGHT  1900   75 78   10/ 11/ 12 1015.4F
BALT KEY BRIDGE  1900   76      80/  6/  7 1015.1F
COVE POINT       1900   76     350/ 10/ 11 1014.5F
LEWISETTA        1900   80 80  320/  3/  4 1014.1F
SOLOMONS ISLAND  1900      80                N/A
PINEY POINT      1900           10/  9/  9   N/A
$$